Weather in Gorlovka

Russia / Moscow Oblast     55°38′52″N   36°59′35″E
temp.,
°C
wind,
m/s
gust,
m/s
humid.,
%
clouds,
%
prec.,
mm/h
press.,
hPa
HPBL,
m
9 december, thu
thu900:00−13nne41091100 0.0 1024251
03:00−12nne41089100 0.0 1024271
06:00−14nne310925 0.0 1024213
09:00−15nne39935 0.0 1026164
12:00−11nne39875 0.0 1026240
15:00−11nne38895 0.0 1027202
18:00−15nne269616 0.0 1029101
21:00−16ne26965 0.0 103097
10 december, fri
fri1000:00−16ene25975 0.0 103185
03:00−17ene259819 0.0 103282
06:00−17ene259840 0.0 103396
09:00−15e39968 0.0 1033157
12:00−11ese311895 0.0 1033273
15:00−11ese310895 0.0 1033268
18:00−13ese412935 0.0 1033227
21:00−13ese310925 0.0 1034228
11 december, sat
sat1100:00−13ese4129118 0.0 1034248
03:00−14ese4119289 0.0 1034228
06:00−13ese41291100 0.0 1034240
09:00−13ese4139047 0.0 1034253
12:00−10ese4128719 0.0 1035282
15:00−10ese411885 0.0 1034260
18:00−11ese411915 0.0 1035234
21:00−11ese413905 0.0 1035264
12 december, sun
sun1200:00−11ese411895 0.0 1035231
03:00−10ese41188100 0.0 1035225
06:00−9se41188100 0.0 1035218
09:00−9se398980 0.0 1035193
12:00−6se3108795 0.0 1035252
15:00−5se379060 0.0 1034179
18:00−7se389229 0.0 1035150
21:00−9se279346 0.0 1035133
13 december, mon
mon1300:00−10se2792100 0.0 1035124
03:00−10ese3792100 0.0 1034117
06:00−9se3988100 0.0 1033165
09:00−8se31086100 0.0 1032229
12:00−5se31184100 0.0 1031326
15:00−5se41086100 0.0 1030327
18:00−5se3988100 0.0 1030269
21:00−5se3990100 0.0 1029270